User: anonymous   Login
Location: Unspecified
(0.0000°N, 0.0000°E)
Time: 12:15:47
(UTC+00:00)
Language:

USA 188 - Orbit

View from above orbital plane
View from above orbital plane
View from above satellite
View from above satellite

Ground track
Ground track

The orbit data is extracted from the following two-line orbital elements,

1 29241U 06024B   19056.60451094 0.00000000  00000-0  00000-0 0    03
2 29241   6.9770  54.9597 0007233  85.3256 274.7690  0.98858465    00
Epoch (UTC): 25 February 2019 14:30:29
Eccentricity: 0.0007233
inclination: 6.9770°
perigee height: 36156 km
apogee height: 36218 km
right ascension of ascending node: 54.9597°
argument of perigee: 85.3256°
revolutions per day: 0.98858465
mean anomaly at epoch: 274.7690°
orbit number at epoch: 0

The dashed part of the orbit path shows where the satellite is in the earth's shadow,  

DLR